Simultaneous Nadir Overpasses (SNOs) Predictions

Prediction of SNOs between GOES-17 and TERRA Satellite Orbit:

Table of predicted SNOs for the next 14.0 days since TLE Epoch: 9/11/2021
Index Date Time (GOES-17) GOES-17 Lat,Lon TERRA Lat,Lon Distance(km) Time Diff (sec)
1 09/11/2021 07:48:35 0.04,-137.20 -0.70,-140.79 407.10 80
2 09/13/2021 07:36:21 0.04,-137.19 -0.12,-137.82 72.22 80
3 09/15/2021 07:26:48 0.04,-137.17 0.51,-134.87 262.01 80
4 09/15/2021 19:45:23 -0.04,-137.17 0.58,-140.02 325.10 80
5 09/17/2021 19:35:50 -0.03,-137.14 -0.06,-137.07 8.67 80
6 09/19/2021 19:23:36 -0.03,-137.12 -0.64,-134.11 342.28 80
7 09/20/2021 07:45:00 0.03,-137.12 -0.45,-139.30 248.75 80
8 09/22/2021 07:30:07 0.03,-137.09 0.20,-136.35 84.63 80
9 09/24/2021 07:17:53 0.03,-137.06 0.80,-133.39 417.45 80
10 09/24/2021 19:39:07 -0.03,-137.05 0.30,-138.54 170.10 80
